Zacatecas Airport, Mexico

12:42 PM CDT on April 19, 2018 (GMT -0500)
Gen Leobardo C Ruiz International

Weather History for MMZC - November, 2012

Change the Weather History Date:

Thursday, November 29, 2012

  Actual Average Record
Temperature  
Mean Temperature 54 °F -  
Max Temperature 71 °F 68 °F 75 °F (2004)
Min Temperature 37 °F 36 °F 14 °F (2011)
Degree Days  
Heating Degree Days 11    
Growing Degree Days 4 (Base 50)    
Moisture  
Dew Point 38 °F    
Average Humidity 55    
Maximum Humidity 81    
Minimum Humidity 29    
Precipitation  
Precipitation 0.00 in - - ()
Sea Level Pressure  
Sea Level Pressure 30.33 in    
Wind  
Wind Speed 3 mph ()    
Max Wind Speed 16 mph    
Max Gust Speed -    
Visibility 9.4 miles    
Events      
Averages and records for this station are not official NWS values.
T = Trace of Precipitation, MM = Missing Value Source: Averaged Metar Reports

Daily Weather History Graph

Daily Weather History Graph

Search for Another Location

Airport or City:

Astronomy

Nov. 29, 2012 Rise Set
Actual Time 7:13 AM CST 6:04 PM CST
Civil Twilight 6:49 AM CST 6:28 PM CST
Nautical Twilight 6:21 AM CST 6:56 PM CST
Astronomical Twilight 5:54 AM CST 7:23 PM CST
Moon 7:09 PM CST (11/29) 8:01 AM CST (11/29)
Length of Visible Light 11h 39m
Length of Day
10h 50m
Full, 99% of the Moon is Illuminated
Nov 29
Full
Dec 6
Last Quarter
Dec 13
New
Dec 19
First Quarter
Dec 28
Full

Hourly Weather History & Observations

Time (CST) Temp. Windchill Dew Point Humidity Pressure Visibility Wind Dir Wind Speed Gust Speed Precip Events Conditions
12:42 AM 44.6 °F - 37.4 °F 76% 30.38 in 10.0 mi Calm Calm - N/A   Clear
1:42 AM 42.8 °F - 37.4 °F 81% 30.38 in 10.0 mi Calm Calm - N/A   Scattered Clouds
3:42 AM 37.4 °F - 32.0 °F 81% 30.36 in 10.0 mi Calm Calm - N/A   Scattered Clouds
4:42 AM 39.2 °F - 33.8 °F 81% 30.34 in 10.0 mi Calm Calm - N/A   Scattered Clouds
5:42 AM 39.2 °F - 33.8 °F 81% 30.34 in 10.0 mi Calm Calm - N/A   Scattered Clouds
6:44 AM 42.8 °F 38.6 °F 37.4 °F 81% 30.35 in 10.0 mi South 6.9 mph - N/A   Partly Cloudy
7:42 AM 42.8 °F 39.3 °F 37.4 °F 81% 30.36 in 9.0 mi SSW 5.8 mph - N/A   Partly Cloudy
8:42 AM 48.2 °F - 41.0 °F 76% 30.37 in 8.0 mi SSW 3.5 mph - N/A   Clear
9:45 AM 60.8 °F - 42.8 °F 52% 30.40 in 9.0 mi SW 8.1 mph - N/A   Clear
10:44 AM 64.4 °F - 44.6 °F 49% 30.40 in 10.0 mi WSW 11.5 mph - N/A   Clear
11:42 AM 68.0 °F - 42.8 °F 40% 30.36 in 9.0 mi SSW 5.8 mph - N/A   Partly Cloudy
12:42 PM 66.2 °F - 39.2 °F 37% 30.34 in 9.0 mi WSW 9.2 mph - N/A   Mostly Cloudy
1:40 PM 69.8 °F - 37.4 °F 31% 30.30 in 9.0 mi SW 16.1 mph - N/A   Mostly Cloudy
2:41 PM 69.8 °F - 37.4 °F 31% 30.28 in 9.0 mi West 5.8 mph - N/A   Mostly Cloudy
3:44 PM 68.0 °F - 37.4 °F 33% 30.26 in 10.0 mi WNW 8.1 mph - N/A   Mostly Cloudy
4:44 PM 71.6 °F - 37.4 °F 29% 30.25 in 10.0 mi SW 8.1 mph - N/A   Mostly Cloudy
5:45 PM 68.0 °F - 35.6 °F 30% 30.26 in 10.0 mi SSW 4.6 mph - N/A   Mostly Cloudy
6:41 PM 62.6 °F - 37.4 °F 39% 30.28 in 8.0 mi NNW 3.5 mph - N/A   Mostly Cloudy
7:54 PM 60.8 °F - 37.4 °F 42% 30.30 in 8.0 mi Calm Calm - N/A   Mostly Cloudy
8:42 PM 55.4 °F - 37.4 °F 51% 30.32 in 8.0 mi Calm Calm - N/A   Mostly Cloudy
9:42 PM 55.4 °F - 37.4 °F 51% 30.33 in 10.0 mi SSW 4.6 mph - N/A   Mostly Cloudy
10:42 PM 51.8 °F - 35.6 °F 54% 30.34 in 10.0 mi South 5.8 mph - N/A   Scattered Clouds
11:42 PM 53.6 °F - 35.6 °F 51% 30.34 in 10.0 mi Calm Calm - N/A   Scattered Clouds